Location: Newark
(45.8667°N, 9.7333°E)
Time: 03:27:58
(UTC+00:00)

Transit 4A - Pass Details

Date: 26 January 2020
Orbit: 872 x 973 km, 66.8° (Epoch: 18 February)

Event Time Altitude Azimuth Distance (km) Brightness Sun altitude
Rises 13:26:39 0° 329° (NNW) 3,474 10.6 20.5°
Reaches altitude 10° 13:29:16 10° 336° (NNW) 2,530 9.9 20.3°
Maximum altitude 13:34:49 44° 48° (NE) 1,200 8.3 19.8°
Drops below altitude 10° 13:40:23 10° 120° (ESE) 2,534 10.2 19.3°
Sets 13:43:00 0° 127° (SE) 3,479 11.0 19.0°
